Location: Sasa del Abadiado
(42.1858°N, 0.3288°W)
Time: 12:47:54
(UTC+00:00)

Daily predictions for brighter satellites

Satellite Brightness Start Highest point End
(mag) Time Altitude Azimuth Time Altitude Azimuth Time Altitude Azimuth
CZ-4B R/B 3.2 17:17:37 10° SSE 17:23:04 70° ENE 17:28:38 10° N
Tsikada Rocket 4.1 17:16:57 10° S 17:23:18 79° E 17:29:36 10° N
NOAA 6 4.5 17:18:26 10° S 17:23:32 70° WSW 17:28:41 10° NNW
FengYun 1-2 T 4.3 17:19:00 10° SSE 17:24:25 58° ENE 17:29:54 10° N
Cosmos 1400 Rocket 2.9 17:24:07 10° N 17:28:16 88° ENE 17:32:20 10° S
Cosmos 1354 Rocket 4.3 17:23:10 10° S 17:28:18 52° ESE 17:33:28 10° NNE
Meteor 2-5 Rocket 4.0 17:23:17 10° SSE 17:28:36 48° E 17:33:55 10° NNE
SL-14 R/B 3.7 17:25:37 10° SSE 17:29:14 41° E 17:32:55 10° NNE
Cosmos 1025 Rocket 3.9 17:25:52 10° SSW 17:30:04 54° W 17:34:21 10° N
Cosmos 836 Rocket 4.5 17:26:33 10° NNW 17:31:47 78° ENE 17:36:58 10° SSE
Cosmos 972 4.5 17:27:06 10° NNW 17:32:22 62° ENE 17:37:14 10° SSE
Cosmos 2297 Rocket 4.3 17:28:37 10° W 17:32:47 21° NW 17:36:59 10° N
Cosmos 1603 4.0 17:27:31 10° NNW 17:33:00 46° ENE 17:38:30 10° SE
Envisat 4.4 17:29:05 10° S 17:33:54 44° W 17:38:46 10° NNW
COSMOS 2455 4.0 17:30:46 10° SSE 17:35:24 23° ESE 17:40:01 10° NE
ATLAS 3B R/B 2.8 17:32:52 10° NNW 17:39:50 71° NE 17:47:05 10° SE
Cosmos 968 Rocket 4.2 17:37:51 10° SW 17:42:50 53° WNW 17:47:51 10° N
YAOGAN 1 3.9 17:40:14 10° ESE 17:43:14 19° ENE 17:46:15 10° NNE
Cosmos 1606 Rocket 4.1 17:40:54 10° N 17:44:59 37° ENE 17:49:04 10° SE
H-2A R/B 3.5 17:43:20 10° S 17:47:09 49° W 17:51:07 10° NNW
H-2A R/B 2.6 17:43:23 10° N 17:47:50 65° WNW 17:52:10 10° SSW
Cosmos 1626 2.2 17:44:16 10° S 17:47:56 81° W 17:51:40 10° N
CZ-2C R/B 3.5 17:43:49 10° SE 17:48:36 39° ENE 17:53:39 10° N
Cosmos 1939 Rocket 3.0 17:45:03 10° SSE 17:49:06 58° ENE 17:53:09 10° N
NOSS 7 (E) 4.5 17:46:05 10° SW 17:50:09 89° NW 17:53:17 11° NE
CZ-4 R/B 2.3 17:51:49 10° SE 17:55:17 27° ENE 17:58:45 10° NNE
ATLAS 5 CENTAUR R/B 1.4 17:52:47 10° SW 17:56:43 84° WNW 18:01:05 10° NE
CSL-04 DEB 4.4 17:52:30 10° NNE 17:56:46 86° ESE 18:00:53 10° SSW
SKYMED 2 3.6 17:53:16 10° NNE 17:57:34 57° E 18:01:49 10° S
MOS 1 Rocket 3.5 17:55:03 10° NNE 17:59:10 41° E 18:03:12 10° S
BREEZE-M DEB (TANK) 1.9 17:57:19 10° WNW 18:00:56 81° NNE 18:02:38 16° ESE
Meteor 2-10 Rocket 4.1 18:00:23 10° N 18:05:32 37° ENE 18:10:27 10° SE
Feng Yun 1-1 Rocket 4.1 18:00:25 10° SSE 18:05:46 73° ENE 18:11:15 10° N
Abrixas rocket 2.1 18:05:30 10° WNW 18:08:08 60° SSW 18:10:07 15° SE
SJ 16-02 2.8 18:05:50 10° SE 18:08:45 18° E 18:08:45 18° E
Cosmos 2058 Rocket 3.7 18:05:32 10° N 18:09:38 34° ENE 18:13:44 10° SE
H-2A R/B 2.5 18:05:25 10° SE 18:09:51 34° ENE 18:14:23 10° N
Cosmos 2228 2.9 18:05:42 10° N 18:09:58 79° E 18:14:14 10° S
Cosmos 2263 Rocket 2.5 18:04:21 10° SSW 18:10:01 69° WNW 18:15:42 10° NNE
Cosmos 1315 Rocket 2.7 18:07:35 10° N 18:11:34 90° E 18:15:33 10° S
Okean 1-7 Rocket 4.2 18:08:26 10° SSE 18:12:30 34° E 18:16:13 12° NNE
BREEZE-M DEB (TANK) 4.4 18:11:18 10° W 18:13:59 39° SSW 18:21:20 10° SE
Meteor 1-24 Rocket 3.6 18:09:34 10° S 18:14:59 87° W 18:20:20 10° N
SAR-Lupe-4 4.0 18:12:53 18° NE 18:15:08 40° E 18:18:31 10° S
Cosmos 1300 3.0 18:16:07 10° NNW 18:19:54 67° W 18:23:41 10° S
Cosmos 1689 Rocket 2.2 18:22:29 43° E 18:22:37 43° E 18:25:21 10° S
Cosmos 1818 4.4 18:19:09 10° S 18:23:48 30° ESE 18:25:19 26° E
SAR-Lupe-1 4.1 18:24:36 23° NNE 18:26:37 56° E 18:30:07 10° S
ISS -2.0 18:26:15 10° S 18:28:24 19° SE 18:28:24 19° SE
Cosmos 1943 3.4 18:23:25 10° NNW 18:29:06 73° WSW 18:34:42 10° SSE
DELTA 2 R/B (1) 4.4 18:24:06 10° W 18:29:25 47° SSW 18:33:49 15° SE
Helios 1A Rocket 3.2 18:25:34 10° SE 18:29:28 43° ENE 18:33:25 10° N
SJ-11-01 4.4 18:27:21 10° SE 18:31:52 49° ENE 18:36:24 10° N
ARGOS 3.5 18:27:31 10° SE 18:32:29 41° ENE 18:37:30 10° N
Cosmos 1726 Rocket 3.6 18:28:52 10° N 18:33:15 82° W 18:37:37 10° S
USA 267 3.5 18:29:51 24° ENE 18:33:34 49° SE 18:39:50 10° SSW
CSL-04 Debris 4.4 18:28:46 10° SE 18:33:49 44° ENE 18:38:55 10° N
Cosmos 1844 4.4 18:29:17 10° SSE 18:34:12 32° ESE 18:35:08 30° E
Lacrosse 5 2.9 18:32:53 10° NNW 18:37:09 26° NNE 18:37:41 26° NE
Cosmos 2279 Rocket 4.2 18:31:09 10° NNW 18:37:24 73° W 18:43:36 10° S
Okean-O 2.5 18:34:15 10° SSE 18:38:39 74° ENE 18:43:06 10° N
Cosmos 773 Rocket 4.0 18:34:26 10° NNW 18:39:36 81° WSW 18:44:43 10° SSE
ATLAS 2AS CENTAUR R/B 4.4 18:33:58 10° W 18:40:55 32° NW 18:47:45 10° NNE
Aureole 2 Rocket 4.0 18:40:10 10° S 18:41:09 19° SSE 18:41:09 19° SSE
CZ-2C R/B 3.2 18:43:09 35° E 18:43:50 36° E 18:48:57 10° SSE
COSMO-SKYMED 1 3.8 18:41:30 10° N 18:45:36 42° WNW 18:49:41 10° SW
X-37B 2.6 18:46:15 10° SSW 18:47:55 20° S 18:47:55 20° S
ERS-2 2.9 18:46:37 14° N 18:49:36 50° WNW 18:53:07 10° SSW
CZ-4B R/B 3.8 18:47:28 10° NNW 18:50:11 22° WNW 18:52:51 10° WSW
OE (NEXTSAT) 4.2 18:47:04 10° WSW 18:50:24 83° SW 18:50:24 83° SW
Cosmos 1538 Rocket 3.9 18:58:21 10° NNW 19:03:34 87° WSW 19:08:43 10° SSE
Cosmos 1844 Rocket 2.5 19:00:05 10° SSW 19:05:43 73° ESE 19:07:13 49° NE
USA 234 3.8 19:06:27 37° NE 19:07:26 39° NNE 19:13:24 10° NW
Meteor 2-1 Rocket 4.0 19:03:37 10° N 19:09:15 84° E 19:14:45 10° S
CZ-4C R/B 4.4 19:06:43 10° WNW 19:10:12 17° NNW 19:13:43 11° NNE
Cosmos 489 Rocket 4.4 19:06:59 10° NNW 19:13:22 70° ENE 19:15:41 40° SE
Cosmos 1092 Rocket 3.8 19:07:46 10° S 19:13:57 71° E 19:17:18 29° NNE
Iridium 4 Rocket 4.4 19:11:59 10° N 19:23:28 - S 19:15:36 38° NNE
YAOGAN 1 3.8 19:14:56 10° S 19:19:01 41° W 19:23:08 10° NNW
COSMOS 2455 3.3 19:14:55 10° SW 19:20:51 59° NW 19:23:38 32° N
CSL-04 Rocket 3.9 19:23:30 10° S 19:28:49 68° WSW 19:34:15 10° NNW
CZ-4 R/B 3.6 19:26:48 10° SSW 19:30:15 25° W 19:33:40 10° NW
ATLAS 5 CENTAUR R/B 4.1 19:39:57 10° WNW 19:42:12 14° NNW 19:42:38 14° NNW
SJ 16-02 2.9 19:42:50 10° SW 19:45:49 34° WSW 19:45:49 34° WSW
H-2A R/B 3.9 19:45:08 10° SSW 19:49:19 27° W 19:53:35 10° NW
NOSS 3-1 (C) 4.5 19:51:02 10° NNW 19:56:35 47° N 19:56:35 47° N
USA 267 3.8 20:17:12 53° NW 20:17:12 53° NW 20:22:55 10° WSW
Lacrosse 5 4.2 20:15:32 10° NW 20:16:54 19° NW 20:16:54 19° NW
CZ-2C R/B 4.3 20:24:39 31° W 20:24:39 31° W 20:28:52 10° SW
